Temp
-11 -10 -10 -11 -11 -10 -9 -9 -9 -9 -9 -9 -9 -9 -9 -8 -8 -9 -9 -9 -9 -9 -9 -9 -9 -9 -10 -10 -10 -10 -10 -11 -11 -11 -11 -11 -12 -12 -13 -13 -13 -13 -13 -13
-11 -10 -11 -11 -10 -10 -10 -10 -10 -9 -9 -9 -9 -9 -9 -9 -9 -9 -9 -9 -9 -9 -9 -9 -9 -9 -10 -10 -11 -11 -11 -11 -11 -11 -11 -11 -12 -12 -12 -13 -13 -13 -13 -13
-12 -12 -12 -11 -11 -10 -10 -10 -10 -10 -9 -9 -9 -9 -10 -9 -9 -9 -9 -9 -9 -9 -9 -9 -9 -9 -10 -10 -11 -11 -12 -12 -12 -12 -12 -12 -12 -12 -12 -13 -13 -13 -13 -13
-13 -12 -12 -12 -11 -11 -11 -11 -11 -10 -10 -10 -10 -9 -10 -10 -10 -10 -10 -9 -9 -9 -9 -9 -9 -9 -10 -11 -11 -11 -12 -12 -12 -12 -12 -12 -12 -13 -13 -13 -13 -13 -13 -13
-13 -13 -13 -12 -12 -12 -12 -12 -11 -11 -11 -10 -10 -10 -10 -10 -10 -10 -10 -10 -10 -10 -10 -10 -9 -10 -10 -11 -11 -12 -12 -12 -12 -12 -12 -12 -12 -13 -13 -13 -13 -13 -13 -13
-14 -13 -13 -13 -13 -13 -12 -13 -12 -12 -12 -11 -11 -11 -10 -10 -10 -11 -10 -10 -10 -10 -10 -10 -10 -10 -11 -11 -11 -12 -12 -12 -12 -12 -13 -13 -13 -13 -13 -13 -13 -13 -13 -13
-14 -13 -13 -14 -14 -13 -13 -13 -13 -13 -12 -10 -11 -11 -10 -11 -11 -11 -11 -11 -11 -10 -10 -10 -10 -11 -11 -12 -12 -12 -13 -13 -13 -13 -13 -13 -13 -13 -13 -13 -13 -13 -13 -13
-14 -14 -13 -13 -13 -13 -13 -13 -13 -13 -12 -12 -12 -11 -11 -11 -11 -11 -11 -11 -11 -11 -11 -11 -11 -11 -12 -12 -13 -13 -13 -13 -13 -13 -13 -13 -13 -13 -13 -13 -13 -13 -13 -13
-15 -14 -14 -14 -14 -14 -14 -13 -14 -13 -13 -12 -12 -12 -11 -11 -11 -11 -12 -11 -11 -11 -11 -11 -11 -12 -12 -13 -13 -13 -13 -13 -13 -13 -13 -14 -13 -13 -13 -13 -13 -13 -13 -13
-15 -15 -15 -15 -15 -15 -14 -14 -14 -14 -14 -13 -12 -11 -11 -11 -12 -12 -12 -12 -12 -12 -12 -12 -12 -12 -13 -13 -13 -13 -14 -14 -13 -13 -13 -14 -14 -14 -14 -13 -14 -13 -13 -13
-15 -15 -15 -15 -15 -15 -14 -14 -14 -14 -14 -13 -12 -12 -12 -12 -12 -12 -12 -12 -12 -12 -12 -12 -13 -12 -13 -14 -14 -14 -14 -14 -14 -14 -14 -14 -14 -14 -14 -14 -14 -14 -13 -13
-15 -15 -15 -15 -15 -15 -15 -15 -15 -15 -14 -14 -13 -13 -12 -12 -12 -12 -13 -13 -13 -13 -13 -13 -14 -13 -13 -14 -14 -14 -14 -14 -14 -14 -14 -14 -15 -15 -14 -14 -14 -14 -13 -13
-16 -16 -16 -15 -15 -15 -14 -14 -15 -15 -15 -14 -14 -13 -13 -13 -13 -13 -14 -13 -14 -14 -13 -14 -14 -14 -14 -14 -15 -15 -15 -15 -15 -15 -15 -15 -15 -15 -15 -15 -15 -14 -14 -13
-17 -17 -16 -15 -15 -15 -15 -15 -15 -15 -15 -14 -14 -14 -14 -14 -14 -14 -14 -14 -14 -14 -14 -14 -14 -14 -14 -14 -14 -15 -15 -15 -15 -15 -15 -15 -16 -16 -15 -15 -15 -15 -14 -14
-18 -17 -16 -16 -16 -16 -16 -16 -16 -15 -15 -15 -14 -14 -15 -15 -15 -15 -15 -15 -15 -15 -15 -14 -15 -14 -14 -14 -14 -15 -15 -15 -15 -15 -16 -16 -16 -16 -15 -15 -16 -15 -15 -14
-18 -17 -17 -16 -16 -16 -16 -16 -15 -15 -15 -14 -14 -15 -15 -16 -15 -16 -15 -15 -15 -15 -15 -15 -15 -15 -15 -15 -14 -15 -15 -15 -16 -16 -16 -16 -16 -16 -16 -15 -16 -16 -16 -15
-18 -18 -17 -17 -17 -16 -16 -15 -16 -15 -16 -16 -15 -16 -16 -16 -16 -16 -16 -15 -15 -16 -16 -16 -16 -15 -15 -15 -15 -15 -15 -15 -15 -16 -16 -16 -16 -16 -16 -16 -16 -16 -16 -16
-19 -18 -18 -18 -18 -18 -16 -16 -16 -16 -16 -16 -16 -17 -16 -16 -16 -16 -16 -16 -16 -15 -15 -15 -15 -16 -16 -16 -16 -15 -15 -15 -16 -16 -16 -16 -16 -16 -16 -16 -16 -16 -16 -16
-19 -19 -19 -19 -18 -18 -17 -16 -16 -16 -17 -16 -17 -17 -17 -16 -17 -16 -17 -16 -16 -15 -15 -15 -15 -15 -16 -16 -16 -16 -16 -16 -16 -16 -16 -16 -16 -17 -17 -17 -16 -16 -16 -16
-19 -19 -19 -19 -19 -18 -17 -18 -18 -17 -17 -17 -17 -17 -18 -18 -17 -17 -17 -16 -16 -15 -15 -15 -15 -15 -16 -16 -17 -17 -17 -17 -17 -17 -17 -17 -17 -16 -17 -17 -16 -16 -16 -17
-20 -20 -20 -19 -19 -18 -17 -18 -18 -18 -17 -18 -18 -18 -18 -18 -18 -17 -17 -16 -16 -16 -15 -16 -17 -18 -18 -19 -19 -18 -18 -18 -18 -18 -18 -17 -17 -17 -17 -17 -17 -17 -17 -17
-19 -19 -19 -20 -19 -18 -18 -18 -18 -19 -19 -19 -18 -18 -18 -18 -18 -17 -17 -16 -16 -16 -17 -18 -18 -19 -19 -20 -20 -19 -19 -19 -18 -19 -19 -18 -18 -18 -17 -17 -17 -17 -17 -17
-20 -19 -19 -19 -18 -18 -19 -19 -19 -19 -19 -19 -18 -18 -18 -18 -17 -17 -17 -17 -18 -18 -19 -19 -20 -21 -21 -21 -20 -21 -21 -21 -20 -20 -20 -20 -19 -19 -19 -18 -18 -18 -17 -18
-20 -20 -20 -20 -20 -20 -20 -20 -20 -20 -20 -19 -19 -18 -18 -17 -17 -18 -19 -19 -19 -20 -20 -21 -21 -21 -21 -21 -21 -21 -21 -21 -21 -21 -21 -20 -20 -20 -19 -19 -19 -18 -18 -18
-21 -20 -20 -21 -21 -21 -20 -20 -20 -20 -20 -20 -19 -18 -18 -18 -19 -20 -20 -20 -21 -21 -21 -22 -22 -22 -21 -21 -21 -21 -21 -21 -21 -21 -21 -21 -21 -21 -20 -20 -20 -19 -19 -18
-21 -21 -21 -20 -21 -20 -21 -20 -20 -20 -20 -19 -19 -19 -19 -19 -20 -20 -21 -22 -22 -22 -21 -21 -21 -21 -21 -21 -21 -20 -20 -20 -21 -21 -21 -20 -20 -21 -20 -20 -19 -20 -20 -19
Height
5748 5754 5762 5768 5769 5769 5774 5778 5783 5786 5788 5790 5794 5797 5797 5794 5802 5800 5801 5800 5800 5799 5797 5796 5793 5791 5788 5784 5781 5778 5775 5772 5769 5766 5762 5759 5756 5754 5750 5744 5737 5733 5725 5716
5740 5747 5753 5755 5757 5763 5767 5771 5775 5777 5780 5783 5784 5791 5790 5790 5793 5795 5796 5796 5795 5794 5793 5791 5789 5786 5784 5781 5777 5775 5771 5769 5766 5763 5760 5756 5754 5751 5746 5741 5735 5729 5723 5713
5730 5737 5740 5744 5749 5753 5758 5762 5766 5768 5771 5774 5777 5782 5782 5784 5785 5788 5789 5789 5790 5790 5788 5787 5784 5781 5779 5777 5773 5771 5768 5765 5763 5760 5757 5754 5750 5747 5743 5738 5733 5727 5720 5712
5716 5724 5729 5734 5739 5743 5748 5754 5756 5759 5762 5764 5768 5772 5775 5777 5779 5780 5782 5782 5783 5783 5782 5781 5778 5775 5773 5772 5769 5767 5764 5762 5759 5757 5754 5750 5747 5744 5740 5736 5730 5725 5719 5711
5713 5717 5722 5726 5734 5736 5741 5744 5746 5749 5752 5755 5759 5761 5769 5769 5772 5774 5775 5775 5775 5775 5775 5774 5772 5770 5768 5767 5764 5763 5760 5758 5756 5753 5750 5747 5744 5741 5737 5733 5727 5723 5717 5710
5698 5705 5709 5716 5721 5725 5730 5734 5737 5740 5743 5745 5751 5753 5758 5762 5764 5765 5766 5767 5768 5768 5768 5767 5765 5764 5762 5761 5760 5758 5756 5754 5751 5749 5746 5744 5741 5739 5734 5731 5725 5721 5714 5708
5688 5694 5701 5707 5711 5714 5721 5726 5728 5731 5733 5737 5743 5743 5749 5751 5756 5758 5759 5759 5760 5760 5760 5760 5759 5757 5756 5755 5755 5754 5752 5750 5748 5745 5743 5740 5738 5735 5732 5728 5723 5719 5713 5707
5678 5684 5691 5697 5702 5708 5713 5717 5720 5721 5724 5730 5732 5732 5740 5743 5746 5750 5751 5752 5753 5753 5753 5752 5751 5750 5750 5749 5749 5749 5747 5746 5744 5742 5739 5737 5735 5732 5729 5725 5722 5718 5712 5706
5666 5671 5679 5686 5692 5697 5700 5704 5712 5713 5714 5718 5720 5724 5731 5735 5737 5739 5741 5744 5745 5745 5745 5745 5745 5744 5743 5743 5744 5743 5742 5741 5739 5738 5735 5733 5731 5729 5726 5723 5720 5716 5712 5705
5651 5657 5665 5672 5679 5683 5687 5697 5699 5700 5704 5707 5711 5715 5721 5726 5727 5730 5732 5733 5735 5736 5737 5737 5738 5738 5737 5737 5737 5737 5737 5735 5735 5733 5731 5729 5728 5726 5723 5721 5718 5714 5711 5705
5640 5647 5654 5660 5666 5673 5679 5684 5688 5693 5696 5699 5702 5705 5712 5715 5717 5720 5722 5724 5725 5726 5728 5728 5729 5729 5729 5729 5730 5730 5730 5730 5729 5728 5727 5725 5724 5722 5720 5719 5716 5713 5709 5705
5631 5635 5640 5648 5654 5660 5666 5672 5676 5680 5687 5692 5694 5697 5700 5705 5708 5710 5713 5714 5716 5718 5719 5720 5720 5721 5721 5722 5723 5723 5724 5723 5723 5722 5721 5721 5720 5718 5716 5715 5713 5710 5708 5704
5615 5616 5625 5632 5639 5644 5649 5657 5664 5671 5678 5681 5684 5689 5691 5693 5698 5701 5702 5704 5706 5707 5708 5709 5711 5712 5713 5714 5715 5716 5717 5717 5718 5718 5717 5716 5716 5714 5712 5711 5710 5707 5706 5703
5603 5607 5613 5622 5631 5638 5642 5649 5655 5661 5666 5669 5675 5679 5681 5686 5688 5688 5691 5694 5696 5698 5699 5701 5702 5704 5705 5706 5708 5708 5709 5710 5710 5710 5711 5711 5711 5710 5708 5706 5707 5704 5703 5701
5593 5598 5604 5608 5615 5622 5630 5636 5642 5646 5653 5657 5666 5668 5672 5675 5677 5679 5682 5684 5687 5689 5692 5694 5695 5697 5698 5699 5700 5700 5701 5702 5703 5703 5704 5704 5705 5704 5704 5703 5702 5701 5699 5697
5585 5589 5595 5599 5604 5610 5617 5623 5630 5636 5640 5642 5649 5656 5661 5663 5665 5670 5673 5675 5678 5681 5683 5686 5688 5689 5690 5692 5692 5693 5693 5694 5695 5695 5696 5697 5697 5698 5698 5698 5697 5696 5696 5694
5576 5580 5585 5588 5593 5598 5604 5615 5620 5627 5632 5637 5642 5649 5652 5653 5658 5661 5665 5667 5670 5673 5675 5676 5678 5680 5682 5683 5684 5684 5685 5686 5686 5686 5687 5689 5690 5690 5692 5692 5691 5691 5691 5690
5563 5570 5575 5578 5583 5586 5600 5604 5611 5616 5621 5626 5633 5635 5641 5645 5648 5653 5656 5659 5661 5663 5665 5667 5668 5670 5671 5673 5674 5675 5675 5676 5677 5678 5679 5679 5680 5682 5683 5684 5684 5685 5684 5684
5550 5554 5560 5566 5573 5580 5588 5596 5602 5607 5615 5619 5624 5625 5631 5636 5640 5642 5646 5648 5650 5652 5655 5657 5658 5659 5660 5662 5664 5664 5664 5665 5666 5667 5669 5670 5671 5673 5673 5674 5675 5676 5678 5678
5537 5543 5551 5556 5564 5573 5584 5586 5593 5598 5604 5610 5613 5618 5623 5627 5630 5635 5636 5637 5639 5641 5642 5642 5643 5644 5645 5646 5648 5651 5652 5653 5653 5655 5657 5658 5660 5661 5662 5664 5666 5668 5669 5670
5527 5531 5539 5548 5554 5564 5573 5578 5582 5589 5603 5601 5605 5609 5612 5617 5622 5622 5625 5628 5629 5629 5629 5628 5627 5628 5629 5632 5635 5637 5639 5640 5641 5644 5645 5647 5649 5651 5653 5654 5656 5659 5660 5662
5515 5522 5530 5536 5544 5555 5565 5570 5576 5584 5585 5589 5594 5600 5604 5607 5610 5613 5614 5615 5615 5614 5614 5614 5615 5617 5618 5620 5622 5624 5626 5628 5631 5632 5634 5635 5637 5639 5641 5643 5646 5648 5652 5654
5503 5514 5523 5531 5540 5547 5554 5563 5564 5569 5574 5578 5584 5590 5594 5597 5600 5601 5601 5601 5602 5602 5603 5604 5605 5607 5609 5612 5614 5615 5617 5618 5620 5622 5623 5624 5625 5627 5630 5631 5635 5638 5641 5644
5497 5504 5512 5521 5529 5535 5542 5546 5553 5557 5564 5568 5573 5578 5582 5586 5587 5587 5588 5590 5592 5593 5594 5596 5597 5599 5600 5602 5604 5606 5608 5610 5612 5613 5615 5616 5617 5619 5619 5621 5623 5625 5629 5632
5488 5496 5505 5513 5520 5526 5532 5537 5542 5546 5552 5558 5562 5565 5568 5570 5572 5575 5578 5580 5582 5584 5586 5587 5589 5591 5593 5594 5596 5598 5599 5600 5602 5604 5606 5607 5609 5610 5611 5613 5614 5615 5617 5620
5475 5487 5495 5504 5512 5516 5519 5523 5529 5536 5541 5546 5549 5553 5557 5560 5563 5566 5569 5572 5574 5576 5578 5580 5581 5583 5585 5587 5587 5588 5589 5590 5591 5593 5596 5597 5599 5600 5602 5604 5606 5607 5608 5609
Wind_Speed
48 47 43 37 40 43 41 40 37 36 36 36 35 30 32 36 26 26 23 21 22 21 21 23 25 26 23 20 20 21 20 19 17 16 16 19 19 19 19 23 26 30 36 42
52 49 43 46 46 45 43 41 38 39 38 37 37 32 35 37 32 31 28 26 26 24 23 24 24 26 24 22 20 20 19 19 18 17 17 19 20 21 22 24 26 28 35 40
52 49 49 50 49 48 46 44 41 42 40 40 39 34 36 36 36 33 31 31 29 28 26 25 25 26 24 23 22 20 20 19 20 19 18 20 21 22 23 24 27 29 34 39
51 51 50 51 50 49 48 45 43 43 42 42 40 39 36 38 36 34 34 33 31 29 29 26 26 27 26 23 21 20 20 19 20 20 19 19 21 22 24 25 26 29 32 36
50 46 44 45 43 43 43 42 43 43 43 43 41 42 36 38 36 34 34 34 31 29 26 25 27 26 26 24 22 21 20 19 20 20 19 19 21 21 23 24 27 29 30 34
54 51 48 46 44 43 42 41 41 41 42 45 40 41 39 36 36 34 33 32 31 29 27 26 26 24 24 23 22 21 19 18 19 19 19 19 20 21 22 24 25 28 27 30
55 54 52 48 45 45 44 41 42 42 44 45 41 42 40 37 34 33 32 32 29 29 28 27 26 24 24 23 22 20 19 18 18 20 20 19 19 21 21 22 23 27 25 27
57 57 51 49 49 46 42 42 42 43 44 42 42 44 40 37 35 33 32 31 30 30 29 27 25 24 24 23 22 21 19 18 19 20 20 19 20 20 21 20 21 24 25 25
66 62 56 53 49 47 47 47 43 44 45 46 47 46 40 37 37 35 33 31 31 30 29 27 25 24 25 24 23 21 20 19 20 21 21 20 20 21 20 20 19 21 24 23
62 66 66 62 53 52 51 47 47 48 48 48 47 45 43 38 37 35 34 33 31 29 25 24 26 27 27 26 24 23 22 21 21 23 24 23 23 22 20 19 18 18 22 22
60 60 60 61 65 57 52 51 50 50 49 48 48 47 43 39 39 37 36 34 32 29 29 30 29 28 29 29 28 25 24 22 23 24 26 26 25 23 20 18 18 16 19 20
58 57 60 63 61 62 61 56 53 52 52 50 49 49 46 44 41 38 34 33 33 34 34 33 32 32 32 32 31 27 25 25 25 26 26 26 24 21 20 17 17 16 17 18
52 54 55 58 64 65 63 61 62 59 53 54 54 51 48 46 41 41 40 39 38 37 34 31 31 34 35 36 34 31 28 28 27 27 27 26 26 23 20 19 18 17 14 16
44 46 54 60 59 55 57 54 53 54 57 58 55 49 47 47 47 44 44 40 33 29 28 29 31 31 33 35 34 32 31 31 30 30 28 26 26 24 23 20 19 18 16 15
46 46 47 52 57 57 55 52 52 55 54 55 53 54 51 46 42 43 37 30 27 26 24 25 28 30 30 29 30 31 33 32 32 31 30 29 29 28 26 24 20 18 18 16
48 50 51 47 52 56 55 53 52 51 52 52 50 46 43 39 37 32 30 30 29 28 26 26 28 30 31 32 31 30 30 29 30 33 32 31 32 31 28 23 23 21 18 18
50 49 49 48 46 49 51 48 47 45 44 40 37 30 35 37 33 32 30 30 29 29 29 29 30 31 32 32 35 38 37 35 35 35 36 36 36 36 28 23 22 22 21 20
50 46 42 44 38 40 43 45 46 46 44 43 40 38 37 36 34 32 31 31 31 32 34 35 36 37 38 37 37 36 37 37 37 38 39 37 36 35 30 28 25 22 23 23
53 48 42 39 46 44 40 41 42 41 39 36 35 38 36 36 36 36 34 35 36 37 38 41 42 43 45 44 43 43 43 43 42 40 40 41 40 38 36 33 31 27 25 25
55 55 56 47 48 44 39 39 40 40 41 39 39 39 39 40 43 40 41 43 44 46 50 54 53 52 51 49 47 46 46 46 44 42 41 42 43 43 41 38 34 35 33 31
67 64 59 58 51 48 45 40 44 45 40 40 40 41 43 44 45 49 50 49 51 55 60 57 54 51 48 45 41 41 42 43 43 44 45 44 41 41 41 40 37 34 36 39
62 61 62 56 52 54 47 47 46 43 42 43 43 42 41 41 44 46 49 54 58 56 49 46 44 43 41 40 38 37 38 40 43 41 40 40 43 46 47 49 41 39 41 36
52 49 45 46 43 43 46 54 44 41 43 46 45 44 44 45 46 50 52 47 43 40 38 38 36 35 36 36 36 34 32 32 32 31 28 31 33 34 34 37 45 45 43 37
52 56 57 52 49 44 47 49 48 46 43 45 46 44 43 45 47 44 38 34 33 32 32 31 30 30 29 27 28 31 33 33 33 30 33 32 25 25 30 31 32 31 33 31
60 55 56 52 42 41 42 44 47 43 39 38 38 38 40 40 37 33 30 28 27 25 24 25 27 28 29 30 32 35 36 35 35 34 32 29 26 26 24 25 25 27 32 31
60 52 48 48 41 38 34 36 38 40 40 39 38 38 37 37 35 33 30 29 27 25 26 26 25 26 26 27 29 30 31 30 30 32 36 36 35 34 32 28 32 23 23 26
Wind_Direction
231 232 235 237 237 236 237 240 241 244 245 245 247 245 254 260 262 267 278 289 298 305 315 321 326 331 335 329 319 319 316 314 317 317 311 309 307 307 303 311 324 331 338 346
233 233 235 235 236 240 240 242 245 246 248 249 250 246 249 258 260 264 274 284 293 298 306 313 318 323 329 326 314 315 314 312 313 316 315 314 309 308 306 310 320 330 336 345
233 234 235 236 237 239 242 243 245 246 247 250 250 248 249 253 257 261 268 277 285 292 299 305 314 320 322 320 314 311 310 310 310 311 313 316 309 307 313 311 315 325 335 343
231 232 233 236 237 239 241 244 247 248 248 247 250 249 248 252 255 260 266 270 277 285 291 300 308 313 316 312 308 306 306 308 308 308 310 312 311 310 313 320 320 326 335 342
234 234 235 238 241 241 242 243 244 247 248 249 248 252 245 252 253 256 260 267 271 278 286 294 301 305 307 306 304 301 302 302 304 306 309 311 312 310 313 322 330 330 336 343
233 230 231 232 233 236 237 239 243 245 247 249 249 252 250 250 255 259 262 265 271 277 282 289 295 297 296 295 293 295 294 295 298 303 305 309 312 313 314 322 331 337 341 344
231 234 233 233 234 236 236 238 242 245 247 251 251 252 256 254 254 258 263 268 272 275 281 285 289 289 287 283 284 288 287 289 292 299 303 308 311 313 315 322 330 336 343 347
232 232 233 233 236 239 241 240 243 247 250 253 253 252 254 257 260 259 262 266 270 274 279 282 282 282 278 277 279 282 280 283 287 295 299 303 308 313 316 321 326 334 339 344
233 234 236 237 236 236 237 238 240 244 247 249 251 253 255 257 261 263 262 264 269 271 276 277 275 275 270 271 275 278 276 276 283 288 293 301 304 307 314 319 323 332 338 344
235 235 237 234 234 233 234 236 238 241 245 249 253 256 256 257 260 263 267 269 271 274 270 269 273 266 263 265 270 273 272 272 280 284 287 293 297 303 309 315 319 327 333 341
234 237 239 238 235 236 238 238 239 242 245 248 252 255 258 261 261 264 266 268 268 265 271 273 267 258 257 261 268 269 268 267 275 281 286 291 296 299 303 313 315 320 328 335
229 237 242 242 241 238 238 240 240 243 247 251 255 256 259 260 261 262 265 268 266 269 271 267 260 257 258 258 264 264 264 261 267 273 281 286 296 298 301 306 308 310 317 329
221 227 233 236 236 238 242 242 243 246 244 248 251 255 256 260 263 269 268 266 265 268 263 256 252 253 254 256 260 262 260 263 265 270 278 281 288 297 298 301 304 303 305 317
223 227 232 235 238 239 239 236 238 242 250 248 251 253 256 262 266 263 264 269 265 256 251 249 248 250 254 256 260 262 262 264 261 262 272 277 282 291 290 295 300 301 295 302
240 231 232 230 231 234 237 236 238 241 241 244 251 255 258 256 253 257 257 253 250 251 250 249 250 253 255 257 261 263 263 262 264 261 264 270 274 280 284 285 290 297 288 288
236 235 235 230 226 228 232 232 234 236 238 241 245 245 244 242 241 242 244 248 250 253 254 254 254 253 253 256 258 257 259 262 263 265 261 267 271 274 281 284 285 282 288 278
225 225 225 227 229 229 229 230 232 233 232 237 240 235 231 230 231 235 242 248 255 258 261 261 261 261 259 255 255 258 261 261 260 260 262 265 267 271 275 281 283 282 276 276
239 231 232 230 225 228 232 231 232 231 230 230 229 226 231 235 235 236 240 249 257 263 266 266 265 263 262 259 257 255 258 259 260 260 262 264 264 266 267 272 275 282 280 273
213 215 214 227 220 220 218 224 232 235 234 231 228 233 237 238 237 240 246 253 260 268 274 275 271 268 264 262 260 258 256 256 257 258 259 262 263 265 264 265 274 276 284 276
212 218 224 240 232 222 220 227 227 230 234 234 233 237 240 237 237 244 251 257 266 276 283 283 274 266 263 261 258 255 256 255 256 258 258 259 261 263 266 266 270 278 281 288
235 239 241 238 238 232 227 230 233 236 238 238 237 240 241 243 246 249 255 264 271 277 278 273 266 265 265 265 263 258 255 255 255 256 258 257 258 262 265 270 266 271 280 282
235 238 240 244 240 237 232 229 236 241 241 239 241 240 245 251 256 260 265 270 273 273 269 266 266 265 264 265 265 261 257 255 255 256 257 258 258 260 259 261 266 272 271 276
229 237 243 244 244 243 243 237 241 241 239 240 241 242 250 256 264 268 267 264 262 262 262 260 261 261 262 262 261 261 265 264 262 263 265 264 263 262 262 262 261 259 265 264
229 228 226 229 229 230 228 227 235 244 244 243 246 251 257 262 264 258 253 252 251 250 252 254 256 258 258 260 259 259 260 261 265 268 266 260 253 259 261 259 261 257 253 254
212 212 215 218 222 230 235 239 240 247 253 257 258 258 256 254 252 251 250 248 247 248 250 253 252 254 256 258 259 260 264 266 264 263 263 255 262 258 245 255 245 248 247 247
210 220 226 226 234 242 241 245 247 247 247 244 245 246 248 250 249 248 249 248 247 251 256 255 251 251 255 258 262 266 267 267 265 260 256 263 263 261 253 254 262 255 252 248